Simultaneous Nadir Overpasses (SNOs) Predictions

Prediction of SNOs between NPP and TERRA Satellite Orbit:

Table of predicted SNOs for the next 14.0 days since TLE Epoch: 2/2/2014
Index Date (NPP) Time (NPP) Lat,Lon (NPP) SZA (NPP ) Date (TERRA) Time (TERRA) Lat,Lon (TERRA) SZA (TERRA ) Distance(km) Time Diff (sec)
1 02/03/2014 16:44:05 68.66, -72.18 85.01 02/03/2014 16:44:43 68.65, -72.20 85.00 1.33 38
2 02/03/2014 17:34:46 -68.53, 95.31 95.14 02/03/2014 17:34:13 -68.55, 95.30 95.12 1.78 33
3 02/06/2014 08:10:30 -69.35,-124.67 95.07 02/06/2014 08:11:40 -69.25,-123.23 95.23 57.63 70
4 02/06/2014 09:01:03 68.63, 43.63 84.18 02/06/2014 09:01:16 68.64, 43.64 84.18 1.02 13
5 02/06/2014 09:51:44 -68.50,-148.87 95.98 02/06/2014 09:50:47 -68.48,-148.92 95.99 2.76 57
6 02/09/2014 00:27:17 -68.74, -8.05 96.54 02/09/2014 00:28:22 -68.74, -8.02 96.55 1.46 65
7 02/09/2014 01:18:01 68.61, 159.43 83.32 02/09/2014 01:17:49 68.63, 159.49 83.33 3.22 12
8 02/09/2014 02:08:36 -68.16, -32.66 97.18 02/09/2014 02:07:24 -68.25, -33.34 97.05 30.15 72
9 02/11/2014 16:44:13 -68.67, 107.81 97.49 02/11/2014 16:44:55 -68.69, 107.77 97.48 2.08 42
10 02/11/2014 17:34:57 68.55, -84.71 82.38 02/11/2014 17:34:22 68.57, -84.73 82.40 2.30 35
11 02/14/2014 08:10:40 69.35, 55.33 82.33 02/14/2014 08:11:49 69.28, 56.76 82.21 56.42 69
12 02/14/2014 09:01:11 -68.67,-136.41 98.39 02/14/2014 09:01:28 -68.69,-136.37 98.38 2.47 17
13 02/14/2014 09:51:54 68.49, 31.13
